Regional Weather Roundup
Issued by NWS

Home | Current Version | Previous Version | Graphics & Text | Print | Product List | Glossary On
Versions: 1 2 3 4 5 6 7 8 9 10 11 12 13 14 15 16 17 18 19 20 21 22 23 24 25 26 27
000
ASUS45 KTFX 242110
RWRMT
MONTANA REGIONAL WEATHER ROUNDUP
NATIONAL WEATHER SERVICE GREAT FALLS MT
300 PM MDT WED AUG 24 2016

NOTE: "FAIR" INDICATES FEW OR NO CLOUDS BELOW 12000 FEET WITH NO
SIGNIFICANT WEATHER AND/OR OBSTRUCTIONS TO VISIBILITY.

MTZ001>007-043-242200-
WEST OF THE DIVIDE

CITY           SKY/WX    TMP DP  RH WIND       PRES   REMARKS
KALISPELL      PTSUNNY   74  37  26 NE7       30.27F
MISSOULA       PTSUNNY   67  49  52 S5        30.29F
BUTTE          SUNNY     62  32  32 NE7       30.34F
MULLAN PASS    CLOUDY    60  38  43 CALM      30.37R
DEER LODGE       N/A     63  36  36 N10       30.36F
EUREKA           N/A     73  37  27 NW7       30.28S
HAMILTON         N/A     70  41  35 N14G21    30.25F
LIBBY            N/A     73  37  27 NW10G16   30.27F
PLAINS           N/A     73  43  34 N3        30.25S
$$

MTZ008-052>055-242200-
SOUTHWEST MONTANA

CITY           SKY/WX    TMP DP  RH WIND       PRES   REMARKS
BOZEMAN        CLOUDY    65  41  41 NW13      30.30F
DILLON         SUNNY     68  34  28 NE18      30.27F
W YELLOWSTONE  CLOUDY    63  32  31 N10G21    30.26F
ENNIS          SUNNY     66  34  30 N20G31    30.33S
THREE FORKS      N/A     66  -5   6 N7        30.27F
TWIN BRIDGES     N/A     69  33  26 N22       30.23F
$$

MTZ009-010-012-014-046-048-049-054-242200-
EAST SLOPES AND CENTRAL MONTANA

CITY           SKY/WX    TMP DP  RH WIND       PRES   REMARKS
CUT BANK       CLOUDY    62  36  37 NW7       30.36S
GREAT FALLS    PTSUNNY   62  38  40 VRB3      30.34F
HELENA         CLOUDY    67  36  31 NW13      30.34S
CHOTEAU          N/A     63  37  39 N12       30.38S
$$

MTZ011-013-016-021-045-047-050-051-242200-
NORTH CENTRAL MONTANA

CITY           SKY/WX    TMP DP  RH WIND       PRES   REMARKS
HAVRE          CLOUDY    60  47  61 NW10      30.30R
LEWISTOWN      CLOUDY    57  42  57 N12G20    30.33S
N BAR RANCH    PTSUNNY   59  41  51 NW22G33   30.32S
CHINOOK          N/A     63  43  48 NW14G22   30.27S
$$

MTZ017>020-022>027-061-062-242200-
NORTHEAST MONTANA

CITY           SKY/WX    TMP DP  RH WIND       PRES   REMARKS
GLASGOW        CLOUDY    58  46  64 NW30G36   30.17S
JORDAN           N/A     63  44  50 NW21G32   30.21R
SIDNEY         MOSUNNY   66  47  50 NW23G32   30.08R
WOLF POINT     CLOUDY    63  48  58 W20       30.14R
POPLAR           N/A     59  48  67 W17G24    30.11S
SCOBEY           N/A     56  46  69 NW22      30.10R
$$

MTZ028>42-056>058-242200-
SOUTHCENTRAL AND SOUTHEAST MONTANA

CITY           SKY/WX    TMP DP  RH WIND       PRES   REMARKS
BAKER          MOSUNNY   70  39  32 NW31G40   30.14R
BILLINGS       MOSUNNY   65  42  43 NE16G23   30.26S
LIVINGSTON     CLOUDY    67  38  34 NW17      30.29F
MILES CITY     MOSUNNY   70  39  32 NW25G43   30.16S
FORSYTH          N/A     66  41  39 W16G25    30.19F
LAUREL           N/A     68  41  37 NW9       30.23R
ROUNDUP          N/A     63  39  41 NW16      30.16F
$$

REGIONAL REPORTS...DAKOTAS

CITY           SKY/WX    TMP DP  RH WIND       PRES   REMARKS
WILLISTON      CLOUDY    63  48  58 W20G31    30.04S
MINOT          CLOUDY    69  49  48 W17G32    29.93R
DICKINSON      PTSUNNY   68  42  38 NW29G35   30.06R
CROSBY         CLOUDY    59  55  88 NW16G26   30.00F
WATFORD CITY   CLOUDY    61  46  59 W20G28    30.06S
BISMARCK       PTSUNNY   73  47  39 W17G24    30.01S
GRAND FORKS    PTSUNNY   73  53  49 W16G23    29.88S
FARGO          MOSUNNY   76  53  44 W20G25    29.93S
BUFFALO SD       N/A     73  44  35 NW29G38   30.06F
RAPID CITY     MOSUNNY   73  45  36 NE7       30.14F
$$

REGIONAL REPORTS...WYOMING/IDAHO/WASHINGTON

CITY           SKY/WX    TMP DP  RH WIND       PRES   REMARKS
GILLETTE       CLOUDY    67  42  40 N15       30.21S
SHERIDAN       CLOUDY    64  43  46 NW12      30.24S
BUFFALO WY     PTSUNNY   64  41  42 N15G28    30.27S
CODY           PTSUNNY   63  45  51 N13G24    30.25S
YELLOWSTONE LA   N/A     54  28  36 MISG      30.32R
IDAHO FALLS    MOSUNNY   74  30  19 VRB6      30.15F
SALMON         SUNNY     72  34  25 W3        30.18F
BOISE          SUNNY     80  31  16 NW9       30.11F
SPOKANE        MOSUNNY   80  40  23 NE6G17    30.22F
$$

REGIONAL REPORTS...ALBERTA

CITY           SKY/WX    TMP DP  RH WIND       PRES   REMARKS
EDMONTON       MOSUNNY   72  46  40 NW6       30.24F
CALGARY        MOSUNNY   66  43  42 N13       30.34F
LETHBRIDGE     MOSUNNY   68  37  32 W15G23    30.32F
MEDICINE HAT   CLOUDY    61  46  59 NE5       30.26S
WATERTON GATE    N/A     61  34  36 NE5         N/A
CARDSTON         N/A     63  34  34 N7          N/A
MILK RIVER       N/A     66  39  37 NW9         N/A
ONEFOUR          N/A     54  46  76 N18G26      N/A
$$

REGIONAL REPORTS...SASKATCHEWAN

CITY           SKY/WX    TMP DP  RH WIND       PRES   REMARKS
SWIFT CURRENT  CLOUDY    54  48  82 N16G24    30.20R
REGINA         LGT RAIN  55  48  76 N18G30    30.05R
SASKATOON      PTSUNNY   64  50  59 N13       30.15F
CYPRESS HILLS    N/A     48  45  87 N8G17       N/A
VAL MARIE        N/A     57  46  67 NW18G25     N/A
ROCKGLEN         N/A     50  50 100 NW20G28     N/A
ASSINIBOIA       N/A     72  45  37 NW9         N/A
$$




USA.gov is the U.S. government's official web portal to all federal, state and local government web resources and services.